Wind_Speed
14 14 15 16 16 17 17 18 18 18 19 18 19 19 19 20 20 20 20 20 20 20 20 19 20 20 21 21 22 22 22 22 21 22 22 22 23 23 23 23 22 22 22 21
14 14 15 16 17 17 18 19 19 18 18 19 19 20 19 19 20 20 20 20 20 20 21 21 21 21 22 23 23 23 23 23 23 23 23 23 23 23 23 23 23 22 22 22
16 16 16 16 17 19 18 18 19 18 17 18 19 19 19 19 20 20 20 21 21 22 22 22 22 22 23 23 24 24 24 24 24 24 24 24 24 24 24 24 24 23 23 23
18 17 17 16 16 18 18 18 18 18 18 18 19 19 19 19 20 21 21 22 22 22 23 23 23 23 23 24 24 25 25 25 25 25 25 25 24 24 24 24 24 24 24 24
18 18 18 17 17 17 18 18 18 18 18 19 19 19 19 20 20 21 22 23 23 23 24 24 25 25 25 25 25 26 26 26 26 26 26 25 24 24 24 24 24 24 24 24
19 20 19 18 18 19 19 18 18 18 18 19 20 21 21 21 21 22 22 23 24 25 26 26 26 26 26 27 27 27 26 26 26 27 27 26 25 25 25 25 25 25 25 25
21 22 21 21 20 20 21 20 18 19 20 20 21 22 22 23 23 24 24 25 26 26 27 27 27 26 27 28 28 28 28 27 27 27 27 27 27 26 26 26 25 25 25 25
21 22 22 21 21 21 21 21 20 20 21 21 22 22 24 24 24 24 25 26 26 26 26 27 27 27 27 27 28 29 28 28 28 28 28 28 28 27 27 27 26 26 26 25
21 21 22 22 22 22 22 22 22 22 21 22 22 23 24 25 25 25 25 26 25 26 26 27 27 27 28 28 28 28 29 29 29 29 28 28 28 28 28 28 27 27 26 26
22 21 22 22 22 21 22 23 23 23 22 22 22 23 24 25 26 26 26 26 26 26 27 27 28 28 28 28 28 29 29 29 29 29 29 29 30 30 29 29 28 28 27 27
21 22 23 23 24 24 23 23 23 23 23 23 23 24 24 24 26 27 27 27 27 27 27 27 28 28 29 29 29 29 29 29 29 29 29 30 30 30 30 30 29 28 28 28
22 22 23 23 24 24 24 23 23 24 24 24 24 25 25 25 25 25 26 27 27 27 27 27 27 27 28 28 29 29 29 29 29 30 30 30 29 29 29 29 29 29 28 28
23 23 23 23 24 24 24 24 23 23 23 24 24 24 24 25 25 25 25 26 27 27 27 27 27 28 29 29 29 29 29 29 30 29 30 30 29 29 29 29 30 30 30 29
24 24 24 24 24 24 24 24 24 24 24 24 24 24 24 24 23 24 24 24 25 26 26 27 27 27 28 28 28 28 28 29 29 29 29 29 29 29 29 29 30 30 30 30
23 24 24 24 24 23 23 24 24 24 25 25 25 25 25 24 24 24 24 24 24 24 25 25 26 26 27 27 27 27 27 27 28 29 29 29 29 29 29 29 29 29 30 30
23 23 24 24 24 24 24 24 24 25 26 26 26 25 25 25 25 25 25 25 25 25 25 25 25 26 26 27 27 27 27 27 28 28 29 29 29 29 29 29 29 30 30 30
23 23 23 23 24 24 24 24 24 24 25 26 26 26 26 26 26 26 26 26 26 27 27 26 27 27 26 26 27 26 27 27 28 29 29 30 30 30 30 30 30 30 30 30
23 23 23 23 23 24 24 24 24 24 24 25 26 26 26 27 27 27 27 27 27 27 27 28 27 27 27 27 27 27 28 28 29 30 30 30 30 30 30 31 31 31 31 31
22 22 22 22 22 23 24 24 24 24 24 25 25 26 27 27 27 28 28 28 28 28 28 28 28 28 28 28 28 29 29 29 30 31 31 31 31 31 31 31 31 31 31 32
22 22 22 23 23 23 23 24 24 24 25 25 25 26 27 28 28 28 28 28 28 29 28 28 27 28 28 29 29 30 30 30 31 31 32 31 31 31 31 31 32 32 32 32
23 23 23 23 23 23 24 25 25 25 25 25 26 26 27 28 29 29 29 29 29 29 29 29 29 29 29 29 29 30 30 31 31 31 31 31 31 31 31 31 31 32 31 31
24 24 24 24 24 25 25 26 26 26 26 26 27 27 28 29 29 30 29 30 30 30 30 30 30 29 29 30 30 31 31 31 31 31 30 30 30 30 30 30 30 31 30 30
25 25 25 25 25 26 26 26 26 27 27 28 28 28 28 29 29 30 30 30 30 31 31 31 31 30 30 30 30 31 31 31 30 30 30 29 29 30 30 29 29 30 30 30
26 26 26 27 27 27 27 27 27 28 28 28 28 28 29 29 29 29 29 30 30 31 31 31 31 30 30 30 30 31 31 30 30 30 30 30 30 29 29 28 29 29 29 29
27 27 28 28 28 28 28 28 28 28 28 28 29 29 29 29 29 29 29 29 29 29 30 30 31 30 30 30 31 31 31 30 30 30 30 29 29 28 28 28 29 29 29 29
27 28 28 29 29 29 29 28 28 28 28 28 29 29 29 29 29 28 28 28 28 28 29 30 30 31 31 31 31 31 30 30 29 29 29 30 29 29 29 29 30 30 29 29
28 28 28 29 29 29 29 28 28 28 28 28 28 29 29 29 28 28 27 27 28 28 29 29 30 31 31 31 30 30 29 29 29 29 29 29 29 29 30 30 30 30 30 29
Wind_Direction
249 251 247 252 254 253 254 258 258 260 263 262 261 261 262 261 260 258 257 257 259 260 262 264 267 268 269 269 272 274 276 278 279 280 281 282 282 283 283 284 284 285 287 288
252 253 252 254 257 258 259 262 262 263 262 261 261 260 261 261 259 258 256 258 260 262 264 265 267 269 270 271 273 274 277 280 279 282 284 284 284 285 284 283 282 284 285 287
255 257 258 260 261 261 260 262 265 264 265 262 261 261 260 259 258 259 257 259 260 263 266 267 269 270 272 273 275 276 277 280 282 282 283 285 285 285 286 283 282 283 284 286
259 258 260 266 264 264 265 264 265 266 265 265 262 260 259 259 259 260 260 260 262 263 267 268 269 270 272 273 275 277 278 280 282 282 283 286 287 285 286 285 284 285 285 285
262 264 265 265 265 267 269 268 264 265 266 268 265 262 259 260 262 262 262 263 264 265 268 269 269 269 270 272 274 276 279 281 281 282 283 285 286 285 285 285 285 285 285 286
264 265 268 269 266 267 271 272 269 267 266 267 266 264 263 263 264 265 265 266 266 267 268 268 269 268 269 271 273 275 278 280 281 281 282 284 285 286 286 285 285 284 285 286
265 267 269 273 272 270 271 273 269 267 268 269 268 267 266 267 268 269 269 269 269 269 269 270 270 269 269 271 273 275 277 279 280 281 282 284 284 285 286 286 285 285 285 286
265 268 270 273 273 271 271 270 271 270 269 269 270 269 269 271 273 273 273 273 272 270 269 270 270 271 272 274 275 276 277 279 280 280 281 283 283 284 285 285 286 285 285 286
267 269 271 271 273 272 271 270 271 272 270 269 270 271 271 272 273 274 274 273 273 272 272 272 271 273 274 275 276 276 277 278 280 280 280 282 283 284 284 283 284 284 284 284
267 270 270 270 270 271 269 268 271 272 271 270 271 271 272 272 273 274 274 274 273 273 273 273 274 274 274 274 275 276 277 277 277 280 281 282 283 283 283 282 282 282 282 283
268 269 269 270 269 270 272 270 270 272 271 271 273 273 274 275 274 273 274 273 273 274 274 273 274 275 275 275 275 275 276 276 277 279 281 283 284 284 282 282 282 281 281 282
268 269 269 269 270 271 273 273 272 272 272 272 273 275 275 277 276 275 274 274 274 274 274 275 275 276 277 277 276 276 276 277 278 280 281 283 284 284 282 282 281 280 281 282
269 269 270 271 271 271 272 273 274 272 272 272 274 278 278 276 276 277 276 275 275 275 276 276 276 278 279 279 278 278 277 277 278 279 280 281 283 283 280 279 279 280 281 282
270 270 271 272 272 272 273 274 273 272 272 273 275 277 277 277 276 277 279 279 278 278 278 279 279 280 281 281 280 279 278 278 279 280 281 282 282 282 280 279 279 279 280 281
271 271 272 272 273 273 274 275 274 274 273 274 275 276 275 275 275 276 279 281 281 282 281 281 281 282 282 281 281 281 281 280 281 282 284 283 283 282 281 280 279 279 279 280
271 272 274 275 274 274 274 274 274 275 276 275 276 276 276 275 275 276 278 280 281 281 282 282 283 283 283 282 282 282 282 283 284 285 286 285 282 282 281 280 280 280 280 280
273 275 276 275 274 275 275 275 277 278 278 276 276 277 276 275 276 276 277 278 279 280 281 282 282 284 284 284 284 284 285 285 284 286 287 286 283 281 281 281 281 281 281 280
273 274 276 276 276 275 275 276 277 279 279 279 277 277 277 276 276 275 276 277 279 280 281 281 281 282 282 283 284 284 285 286 286 287 287 287 285 284 283 281 282 282 281 281
273 275 276 278 278 277 276 277 278 278 279 280 279 279 278 277 276 275 275 276 278 279 280 281 281 282 282 282 283 284 285 287 288 288 288 287 285 284 283 283 283 283 282 282
273 275 277 278 279 280 280 280 279 279 280 280 280 280 280 279 278 277 276 276 278 279 280 281 281 282 282 283 283 284 286 287 289 289 287 286 285 284 283 282 283 284 283 282
273 275 277 278 279 281 283 283 282 281 281 281 281 281 281 281 281 280 277 276 276 277 279 280 280 281 282 283 284 285 287 288 289 289 287 286 285 284 285 285 284 284 283 282
274 275 277 279 281 283 283 283 283 282 282 282 282 282 282 282 282 281 279 277 276 276 277 279 279 280 282 284 285 286 288 288 288 288 288 287 286 286 286 285 285 285 284 283
274 276 278 279 281 283 284 283 283 282 282 282 282 282 282 283 283 282 281 279 277 277 277 278 280 281 282 284 285 287 288 288 287 287 287 287 287 288 287 287 287 286 285 285
276 276 277 279 281 284 285 284 283 282 282 281 282 283 283 283 284 284 283 281 279 278 278 279 280 281 282 283 285 286 287 287 286 285 286 287 288 289 289 288 289 289 288 286
277 278 279 280 282 284 285 285 284 282 281 281 282 283 284 284 284 284 284 283 282 281 280 280 281 282 283 284 285 286 286 286 286 285 284 286 287 288 289 289 290 291 290 289
278 278 280 280 281 281 282 283 283 282 282 282 283 284 284 285 285 284 283 282 283 284 283 283 282 282 283 285 286 285 284 283 283 284 284 285 286 287 288 289 290 291 290 289
277 278 279 279 280 280 281 281 281 282 282 283 283 284 284 284 284 283 283 283 283 284 286 285 283 283 285 285 285 285 284 283 282 283 283 285 287 288 288 288 289 291 291 290
Height
5779 5780 5781 5782 5783 5784 5785 5785 5786 5787 5787 5788 5787 5788 5788 5788 5789 5789 5790 5790 5791 5791 5791 5791 5791 5791 5791 5791 5790 5789 5789 5788 5787 5786 5784 5783 5781 5780 5779 5777 5776 5774 5773 5771
5775 5776 5777 5778 5779 5779 5780 5780 5781 5781 5781 5781 5781 5781 5782 5782 5782 5783 5784 5785 5785 5785 5785 5785 5785 5785 5785 5784 5784 5784 5783 5782 5781 5779 5778 5777 5775 5774 5772 5771 5769 5768 5766 5765
5772 5772 5772 5774 5774 5774 5775 5775 5776 5776 5776 5775 5775 5775 5776 5776 5777 5777 5778 5779 5779 5779 5779 5779 5779 5779 5779 5778 5778 5777 5776 5775 5774 5773 5772 5770 5769 5767 5765 5764 5762 5761 5759 5758
5767 5768 5768 5771 5769 5769 5770 5770 5770 5770 5770 5769 5769 5770 5770 5770 5771 5771 5772 5772 5772 5772 5773 5773 5772 5772 5772 5772 5771 5770 5770 5769 5768 5766 5765 5763 5762 5760 5758 5757 5755 5753 5752 5750
5762 5762 5763 5765 5765 5764 5764 5765 5765 5765 5764 5764 5764 5764 5765 5764 5765 5765 5765 5765 5765 5765 5765 5766 5765 5765 5765 5765 5764 5763 5763 5762 5761 5759 5758 5756 5754 5753 5751 5750 5748 5746 5745 5743
5758 5758 5758 5760 5760 5759 5760 5760 5760 5759 5759 5759 5759 5759 5760 5759 5758 5758 5758 5758 5758 5758 5758 5758 5758 5758 5758 5757 5757 5756 5755 5754 5753 5752 5750 5749 5747 5745 5744 5742 5740 5739 5737 5735
5753 5752 5753 5754 5754 5754 5755 5755 5754 5753 5753 5753 5753 5753 5753 5752 5752 5752 5751 5751 5751 5750 5750 5750 5750 5750 5750 5749 5749 5748 5747 5746 5745 5744 5742 5741 5739 5738 5736 5735 5733 5731 5729 5727
5747 5747 5750 5748 5748 5749 5749 5748 5747 5747 5747 5747 5747 5746 5746 5745 5745 5745 5744 5743 5743 5743 5743 5742 5742 5742 5741 5741 5740 5739 5739 5738 5737 5735 5734 5733 5731 5730 5728 5727 5725 5723 5721 5719
5742 5744 5742 5741 5741 5741 5741 5741 5741 5741 5741 5741 5740 5740 5739 5738 5738 5737 5737 5736 5736 5735 5735 5735 5734 5734 5733 5733 5732 5731 5730 5729 5728 5727 5725 5724 5723 5721 5720 5718 5717 5715 5713 5711
5735 5735 5735 5735 5734 5734 5735 5735 5734 5734 5734 5734 5733 5733 5732 5731 5730 5729 5729 5728 5728 5727 5727 5727 5726 5725 5725 5724 5723 5722 5721 5720 5719 5718 5717 5715 5714 5712 5711 5709 5708 5706 5705 5703
5728 5729 5728 5728 5728 5728 5728 5727 5727 5727 5727 5727 5726 5725 5724 5723 5722 5721 5721 5720 5720 5719 5719 5718 5717 5717 5716 5715 5714 5713 5712 5711 5710 5709 5708 5706 5705 5703 5702 5700 5699 5698 5696 5694
5721 5722 5721 5721 5721 5721 5721 5720 5720 5720 5720 5719 5719 5718 5716 5715 5714 5713 5712 5712 5711 5711 5710 5709 5709 5708 5707 5706 5705 5704 5703 5702 5701 5700 5698 5697 5695 5694 5692 5691 5689 5688 5687 5685
5714 5714 5714 5714 5713 5713 5713 5713 5713 5713 5712 5712 5711 5710 5709 5708 5707 5705 5704 5704 5703 5702 5702 5701 5700 5699 5698 5697 5696 5694 5694 5692 5691 5690 5689 5687 5686 5684 5683 5681 5679 5678 5677 5676
5706 5706 5706 5706 5706 5706 5706 5705 5705 5705 5704 5704 5703 5702 5701 5700 5699 5698 5697 5696 5695 5694 5693 5692 5691 5690 5689 5688 5686 5685 5684 5683 5682 5680 5679 5678 5676 5674 5673 5672 5670 5668 5667 5665
5699 5699 5699 5698 5698 5698 5698 5698 5697 5697 5696 5696 5695 5694 5694 5693 5692 5691 5690 5689 5688 5686 5685 5684 5683 5682 5680 5679 5678 5676 5675 5674 5672 5671 5669 5668 5666 5664 5663 5661 5660 5658 5657 5655
5691 5691 5691 5691 5691 5690 5690 5690 5689 5688 5688 5687 5687 5686 5685 5685 5684 5683 5682 5681 5680 5679 5677 5676 5675 5673 5672 5670 5669 5667 5666 5664 5663 5661 5660 5658 5656 5654 5653 5651 5650 5648 5647 5645
5683 5683 5683 5683 5682 5682 5682 5682 5681 5680 5679 5679 5678 5678 5677 5676 5676 5675 5673 5672 5671 5670 5669 5668 5666 5665 5663 5662 5660 5659 5657 5656 5654 5652 5650 5648 5646 5644 5643 5641 5640 5638 5637 5635
5675 5675 5675 5674 5674 5674 5673 5673 5672 5672 5671 5671 5670 5669 5668 5667 5667 5666 5665 5664 5663 5661 5660 5659 5658 5656 5655 5653 5652 5650 5649 5647 5645 5643 5640 5638 5636 5634 5632 5631 5629 5627 5626 5624
5668 5667 5667 5666 5666 5665 5665 5664 5664 5663 5663 5662 5661 5660 5659 5658 5658 5657 5656 5655 5654 5653 5651 5650 5648 5647 5646 5644 5643 5641 5639 5637 5635 5633 5631 5628 5626 5624 5622 5620 5618 5616 5615 5613
5660 5660 5659 5659 5658 5657 5657 5656 5655 5655 5654 5653 5652 5651 5650 5649 5648 5647 5646 5645 5644 5643 5642 5641 5639 5638 5636 5635 5633 5632 5630 5628 5625 5623 5620 5618 5616 5613 5611 5609 5607 5605 5603 5602
5653 5652 5652 5651 5650 5649 5648 5647 5646 5646 5645 5644 5643 5642 5641 5640 5638 5637 5636 5636 5635 5634 5633 5631 5630 5629 5627 5625 5623 5622 5620 5617 5615 5612 5610 5608 5606 5603 5601 5599 5597 5595 5593 5591
5645 5644 5644 5643 5642 5641 5640 5639 5638 5636 5635 5634 5633 5632 5631 5630 5629 5627 5626 5626 5625 5624 5623 5621 5620 5619 5617 5615 5613 5612 5609 5607 5605 5602 5600 5598 5596 5593 5591 5589 5586 5584 5582 5580
5636 5636 5635 5634 5633 5632 5631 5630 5628 5627 5626 5625 5624 5623 5622 5620 5619 5618 5617 5616 5614 5613 5612 5611 5610 5608 5607 5605 5603 5601 5599 5597 5594 5592 5590 5588 5586 5584 5581 5579 5576 5574 5572 5570
5627 5627 5626 5625 5624 5623 5622 5621 5619 5618 5617 5616 5615 5613 5612 5611 5609 5608 5606 5605 5604 5603 5602 5601 5599 5598 5596 5595 5593 5591 5589 5587 5584 5582 5580 5578 5576 5574 5571 5569 5567 5564 5562 5560
5618 5617 5617 5616 5615 5614 5613 5611 5609 5608 5607 5606 5605 5604 5602 5601 5600 5598 5597 5595 5594 5593 5591 5590 5589 5588 5586 5584 5583 5581 5579 5576 5574 5572 5571 5569 5567 5564 5562 5560 5558 5555 5553 5550
5608 5608 5607 5606 5605 5604 5603 5602 5600 5599 5598 5597 5595 5594 5593 5591 5590 5588 5587 5586 5584 5583 5582 5580 5579 5577 5576 5574 5572 5570 5568 5566 5564 5563 5561 5559 5557 5555 5553 5550 5548 5546 5543 5541
5599 5598 5598 5597 5596 5594 5593 5592 5591 5590 5588 5587 5586 5585 5583 5582 5580 5579 5578 5576 5575 5574 5572 5571 5569 5568 5566 5564 5562 5560 5558 5556 5555 5553 5551 5550 5548 5545 5543 5541 5538 5536 5533 5531